EW8041 Weather Reports


Display with metric or nautical units.
time (UTC)temp
F
wind
direction
speed
MPH
gust
MPH
rain 1hr
in
rain 24hr
in
rain mn
in
humidity
%
barometer
mb
20191114232723 49 0.0 0.0 0.00 0.00 0.00 49 1021.5
20191114231536 49 346 1.0 3.0 0.00 0.00 0.00 49 1021.4
20191114230331 49 0 0.0 2.0 0.00 0.00 0.00 49 1021.3
20191114225126 49 0.0 0.0 0.00 0.00 0.00 49 1021.2
20191114223921 50 0.0 0.0 0.00 0.00 0.00 50 1021.4
20191114222733 50 0.0 0.0 0.00 0.00 0.00 50 1021.1
20191114221528 50 0.0 0.0 0.00 0.00 0.00 48 1021.2
20191114220323 51 0.0 0.0 0.00 0.00 0.00 48 1021.0
20191114215133 51 0.0 0.0 0.00 0.00 0.00 47 1021.0
20191114213927 51 0.0 0.0 0.00 0.00 0.00 47 1021.2
20191114212722 51 0.0 0.0 0.00 0.00 0.00 46 1021.2
20191114211522 52 0.0 0.0 0.00 0.00 0.00 45 1020.9
20191114210329 52 0.0 0.0 0.00 0.00 0.00 45 1020.9
20191114205124 52 217 1.0 3.0 0.00 0.00 0.00 44 1020.9
20191114203937 52 0.0 0.0 0.00 0.00 0.00 44 1021.0
20191114202731 52 177 1.0 2.0 0.00 0.00 0.00 45 1020.8
20191114201526 52 191 0.0 2.0 0.00 0.00 0.00 44 1021.0
20191114200320 52 225 1.0 3.0 0.00 0.00 0.00 44 1021.2
20191114195133 52 265 1.0 4.0 0.00 0.00 0.00 46 1021.1
20191114193927 52 190 0.0 2.0 0.00 0.00 0.00 45 1021.1
20191114192723 53 223 2.0 4.0 0.00 0.00 0.00 45 1021.0
20191114191530 52 239 3.0 4.0 0.00 0.00 0.00 45 1021.1
20191114190323 52 217 0.0 2.0 0.00 0.00 0.00 45 1021.3
20191114185124 52 108 2.0 4.0 0.00 0.00 0.00 45 1021.8
20191114183937 52 186 1.0 2.0 0.00 0.00 0.00 46 1022.0
20191114182732 50 138 2.0 4.0 0.00 0.00 0.00 47 1021.9
20191114181526 51 115 3.0 6.0 0.00 0.00 0.00 46 1022.4
20191114180321 50 209 2.0 5.0 0.00 0.00 0.00 45 1022.5
20191114175134 51 97 2.0 5.0 0.00 0.00 0.00 45 1022.6
20191114173929 52 180 1.0 2.0 0.00 0.00 0.00 45 1022.7
20191114172723 49 204 2.0 4.0 0.00 0.01 0.00 49 1022.9
20191114171536 49 218 2.0 3.0 0.00 0.01 0.00 51 1023.2
20191114170331 48 232 3.0 4.0 0.00 0.01 0.00 51 1023.3
20191114165125 48 182 2.0 5.0 0.00 0.01 0.00 53 1023.3
20191114163920 47 161 1.0 5.0 0.00 0.02 0.00 55 1023.2
20191114162733 47 118 2.0 3.0 0.00 0.02 0.00 54 1023.1
20191114161527 45 156 2.0 3.0 0.00 0.03 0.00 55 1023.3
20191114160322 45 166 1.0 3.0 0.00 0.03 0.00 55 1023.4
20191114155135 45 112 0.0 2.0 0.00 0.03 0.00 55 1023.4
20191114153929 45 140 1.0 3.0 0.00 0.03 0.00 55 1023.4
20191114152724 44 222 2.0 4.0 0.00 0.03 0.00 55 1023.4
20191114151536 44 126 2.0 3.0 0.00 0.03 0.00 55 1023.4
20191114150331 44 142 2.0 3.0 0.00 0.03 0.00 54 1023.3
20191114145126 43 132 2.0 4.0 0.00 0.03 0.00 55 1023.2
20191114143921 42 105 4.0 5.0 0.00 0.03 0.00 56 1023.1
20191114142721 42 103 3.0 4.0 0.00 0.03 0.00 56 1023.1
20191114141528 40 0.0 0.0 0.00 0.03 0.00 59 1023.2
20191114140323 40 144 2.0 3.0 0.00 0.03 0.00 60 1023.3
20191114135136 39 140 1.0 4.0 0.00 0.03 0.00 61 1023.3
20191114133926 39 0.0 0.0 0.00 0.03 0.00 62 1023.2
20191114132721 38 0.0 0.0 0.00 0.03 0.00 63 1023.2
20191114131533 37 101 0.0 1.0 0.00 0.03 0.00 64 1023.0
20191114130328 37 0.0 1.0 0.00 0.03 0.00 64 1023.2
20191114125123 37 150 0.0 2.0 0.00 0.03 0.00 62 1023.1
20191114123936 37 158 1.0 2.0 0.00 0.03 0.00 62 1023.0
20191114122730 37 0.0 0.0 0.00 0.03 0.00 63 1022.7
20191114121525 37 247 0.0 1.0 0.00 0.03 0.00 62 1022.7
20191114120337 37 215 0.0 3.0 0.00 0.03 0.00 62 1022.3
20191114115132 37 0.0 0.0 0.00 0.03 0.00 62 1022.7
20191114113927 37 125 3.0 4.0 0.00 0.03 0.00 61 1022.3
20191114112721 37 0.0 0.0 0.00 0.03 0.00 61 1022.5
20191114111534 37 124 2.0 4.0 0.00 0.03 0.00 62 1022.5
20191114110328 37 0.0 0.0 0.00 0.03 0.00 62 1022.4
20191114105123 37 99 0.0 2.0 0.00 0.03 0.00 62 1022.7
20191114103936 37 0.0 0.0 0.00 0.03 0.00 62 1022.1
20191114102731 37 112 1.0 3.0 0.00 0.03 0.00 62 1022.5
20191114101526 37 157 0.0 1.0 0.00 0.03 0.00 60 1022.6
20191114100327 37 192 1.0 2.0 0.00 0.03 0.00 61 1022.5
20191114095122 37 180 0.0 2.0 0.00 0.03 0.00 61 1022.3
20191114093922 37 125 2.0 4.0 0.00 0.03 0.00 61 1022.1
20191114092736 37 0.0 0.0 0.00 0.03 0.00 61 1022.2
20191114091532 36 202 0.0 2.0 0.00 0.03 0.00 62 1021.9
20191114090326 36 137 1.0 2.0 0.00 0.03 0.00 63 1021.9
20191114085121 36 149 0.0 3.0 0.00 0.03 0.00 64 1021.9
20191114083934 36 0.0 0.0 0.00 0.03 0.00 65 1022.0
20191114082728 36 112 0.0 1.0 0.00 0.03 0.00 62 1022.2
20191114081524 36 102 0.0 2.0 0.00 0.03 0.00 62 1022.0
20191114080337 36 163 0.0 1.0 0.00 0.03 0.00 62 1022.0
20191114075132 37 0.0 0.0 0.00 0.03 0.00 62 1022.4
20191114073926 37 225 0.0 1.0 0.00 0.03 0.00 60 1022.6
20191114072721 37 0.0 0.0 0.00 0.03 0.00 60 1022.3
20191114071535 37 187 0.0 2.0 0.00 0.03 0.00 60 1022.0
20191114070330 37 132 2.0 6.0 0.00 0.03 0.00 60 1021.6
20191114065124 37 194 1.0 2.0 0.00 0.03 0.00 62 1021.2
20191114063937 36 196 1.0 4.0 0.00 0.03 0.00 60 1021.1
20191114062731 37 157 0.0 1.0 0.00 0.03 0.00 60 1021.0
20191114061526 37 126 1.0 3.0 0.00 0.03 0.00 60 1020.9
20191114060321 37 122 3.0 4.0 0.00 0.03 0.00 60 1020.9
20191114055134 36 76 1.0 4.0 0.00 0.03 0.03 64 1021.1
20191114053929 35 34 1.0 3.0 0.00 0.03 0.03 68 1021.3
20191114052725 34 218 1.0 3.0 0.00 0.03 0.03 73 1021.3
20191114051526 32 0.0 0.0 0.00 0.03 0.03 84 1021.8
20191114050320 32 0.0 0.0 0.00 0.03 0.03 81 1022.1
20191114045127 32 0.0 0.0 0.00 0.03 0.03 81 1022.2
20191114043921 32 0.0 0.0 0.00 0.03 0.03 80 1022.3
20191114042734 32 0.0 0.0 0.00 0.03 0.03 79 1022.3
20191114041529 33 0.0 0.0 0.00 0.03 0.03 77 1022.2
20191114040323 33 0.0 0.0 0.00 0.03 0.03 78 1022.4
20191114035136 34 0.0 0.0 0.00 0.03 0.03 75 1022.4
20191114033931 34 0.0 0.0 0.00 0.03 0.03 74 1022.2
20191114032725 34 0.0 0.0 0.00 0.03 0.03 73 1022.2
20191114031531 35 0.0 0.0 0.00 0.03 0.03 72 1022.2
20191114030326 35 0.0 0.0 0.00 0.03 0.03 72 1021.9
20191114025120 35 0.0 0.0 0.00 0.03 0.03 71 1022.0
20191114023921 35 0.0 0.0 0.00 0.03 0.03 69 1022.0
20191114022733 36 0.0 0.0 0.00 0.03 0.03 67 1021.8
20191114021528 36 0.0 0.0 0.00 0.03 0.03 66 1021.5
20191114020322 37 0.0 0.0 0.00 0.03 0.03 64 1021.3
20191114015135 38 0.0 0.0 0.00 0.03 0.03 61 1021.2
20191114013930 38 0.0 0.0 0.00 0.03 0.03 61 1021.1
20191114012724 38 0.0 0.0 0.00 0.03 0.03 60 1020.5
20191114011537 38 247 0.0 3.0 0.00 0.03 0.03 61 1020.1
20191114010332 38 0.0 0.0 0.00 0.03 0.03 59 1019.8
20191114005127 39 143 3.0 6.0 0.00 0.03 0.03 57 1019.7
20191114003922 39 130 1.0 4.0 0.00 0.03 0.03 58 1019.5
20191114002734 38 45 0.0 2.0 0.00 0.03 0.03 60 1019.5
20191114001529 38 0.0 0.0 0.00 0.03 0.03 61 1019.5
20191114000323 38 82 1.0 2.0 0.00 0.03 0.03 61 1019.5
20191113235136 38 98 1.0 2.0 0.00 0.03 0.03 62 1019.6
20191113233930 38 112 0.0 2.0 0.00 0.03 0.03 62 1020.3